Weather Roundup
Issued by NWS

Home | Current Version | Previous Version | Graphics & Text | Print | Product List | Glossary Off
Versions: 1 2 3 4 5 6 7 8 9 10 11 12 13 14 15 16 17 18 19 20 21 22 23 24 25 26 27 28 29 30 31 32 33 34 35 36 37 38 39 40 41 42 43 44 45 46 47 48 49 50

000
NZUS93 KARX 201310
HRRWXR

CURRENT HOURLY OBSERVATIONS ACROSS
MUCH OF THE UPPER MISSISSIPPI VALLEY
NATIONAL WEATHER SERVICE LA CROSSE WI
700 AM CST SAT DEC 20 2014


...SOUTHEAST MINNESOTA...


CITY           SKY/WX    TMP DP  RH WIND       PRES   REMARKS
ROCHESTER      CLOUDY    27  25  92 S8        30.16S FOG     WCI  19
ROCHESTER/MAYO CLOUDY    28  26  89 SE7       30.17R WCI  21
WINONA         CLOUDY    30  27  86 SE3       30.21F
AUSTIN         FOG       27  27 100 S6        30.16R VSB 3/4 WCI  20
ALBERT LEA     FOG       28  28 100 S6        30.15R VSB 1/4 WCI  22
DODGE CENTER   CLOUDY    28  28 100 S8        30.15R FOG     WCI  20
PRESTON        CLOUDY    27  25  93 S7        30.18R FOG     WCI  19
OWATONNA       CLOUDY    28  27  93 S8        30.15S FOG     WCI  20
FARIBAULT      CLOUDY    30  28  93 S6        30.15S FOG     WCI  24
$$

...ELSEWHERE IN MINNESOTA...


CITY           SKY/WX    TMP DP  RH WIND       PRES   REMARKS
MINNEAPOLIS    CLOUDY    30  25  81 SE7       30.16R HAZE    WCI  23
INTNL FALLS    LGT SNOW  26  24  92 VRB5      30.05R FOG     WCI  20
DULUTH         LGT SNOW  26  23  88 S7        30.11S FOG     WCI  18
RED WING       MOCLDY    28  25  86 SE5       30.17S WCI  23
REDWOOD FALLS  CLOUDY    32  28  85 S10       30.10S WCI  24
MANKATO        CLOUDY    30  27  86 S8        30.14R WCI  23
WORTHINGTON    CLOUDY    28  27  93 S9        30.08  WCI  20
FAIRMONT       CLOUDY    28  25  86 S10       30.13R WCI  19
$$

...SOUTHWEST WISCONSIN...


CITY           SKY/WX    TMP DP  RH WIND       PRES   REMARKS
LA CROSSE      CLOUDY    30  24  78 SE6       30.22S WCI  24
PRAIRIE DU CHI CLOUDY    29  25  85 E6        30.24R WCI  23
BOSCOBEL       CLOUDY    29  24  82 CALM      30.25R
LONE ROCK      CLOUDY    30  23  75 E7        30.25S WCI  23
PLATTEVILLE    CLOUDY    28  26  94 CALM      30.24R
FORT MC COY    CLOUDY    28  24  85 CALM      30.23S
CAMP DOUGLAS   MOCLDY    26  26 100 SE5       30.23S WCI  20
VIROQUA        CLOUDY    26  26 100 SE6       30.20R WCI  20
WIS DELLS      CLOUDY    26  23  89 CALM      30.23S FOG
$$

...ELSEWHERE IN WISCONSIN...


CITY           SKY/WX    TMP DP  RH WIND       PRES   REMARKS
MILWAUKEE      CLOUDY    27  18  69 W5        30.27S WCI  22
MADISON        FLURRIES  27  23  85 E5        30.24F WCI  22
GREEN BAY      MOCLDY    21  19  92 CALM      30.27S
EAU CLAIRE     CLOUDY    28  21  75 SE8       30.18F WCI  20
BLACK RVR FLS  CLOUDY    28  23  81 CALM      30.21F
MEDFORD        CLOUDY    24  22  93 S6        30.18S FOG     WCI  17
WAUSAU         CLOUDY    24  22  91 S3        30.20S FOG
WIS RAPIDS     CLOUDY    25  21  85 S5        30.24F WCI  19
MARSHFIELD     CLOUDY    25  22  88 S8        30.20S WCI  16
RICE LAKE      CLOUDY    28  24  86 SE5       30.18S WCI  22
$$

...NORTHEAST IOWA...


CITY           SKY/WX    TMP DP  RH WIND       PRES   REMARKS
DECORAH        CLOUDY    27  25  93 SE8       30.19R WCI  18
MASON CITY     FOG       29  28  96 SE9       30.17R VSB 1/2 WCI  20
CHARLES CITY   CLOUDY    28  28 100 SE8       30.18S FOG     WCI  20
OELWEIN        CLOUDY    28  27  93 SE9       30.20S WCI  20
$$

...ELSEWHERE IN IOWA...


CITY           SKY/WX    TMP DP  RH WIND       PRES   REMARKS
DES MOINES     CLOUDY    32  28  85 S3        30.17S
IOWA CITY      CLOUDY    30  25  81 SE6       30.24R WCI  24
FORT DODGE     CLOUDY    28  25  86 CALM      30.16R
$$

...NORTHERN ILLINOIS...


CITY           SKY/WX    TMP DP  RH WIND       PRES   REMARKS
CHICAGO-OHARE  CLOUDY    29  23  78 CALM      30.27S
CHICAGO-MIDWAY CLOUDY    32  25  75 S3        30.28S
MOLINE         CLOUDY    29  24  82 E5        30.25S WCI  24
ROCKFORD       FLURRIES  27  22  81 CALM      30.29R
PEORIA         CLOUDY    30  24  78 E6        30.27S WCI  24
$$

NOTE: "FAIR" INDICATES FEW OR NO CLOUDS BELOW 12,000 FEET WITH NO
SIGNIFICANT WEATHER AND/OR OBSTRUCTIONS TO VISIBILITY. WIND
SPEEDS ARE IN MILES-PER-HOUR.



USA.gov is the U.S. government's official web portal to all federal, state and local government web resources and services.